Year,Month,Day,Hour,Minute,Value (Times are PST for temperature in C)
2018,04,25,00,00,15.20
2018,04,25,00,01,15.20
2018,04,25,00,02,15.20
2018,04,25,00,03,15.20
2018,04,25,00,04,15.20
2018,04,25,00,05,15.20
2018,04,25,00,06,15.20
2018,04,25,00,07,15.20
2018,04,25,00,08,15.20
2018,04,25,00,09,15.20
2018,04,25,00,10,15.20
2018,04,25,00,11,15.10
2018,04,25,00,12,15.10
2018,04,25,00,13,15.10
2018,04,25,00,14,15.10
2018,04,25,00,15,15.20
2018,04,25,00,16,15.20
2018,04,25,00,17,15.10
2018,04,25,00,18,15.10
2018,04,25,00,19,15.00
2018,04,25,00,20,15.00
2018,04,25,00,21,15.00
2018,04,25,00,22,15.00
2018,04,25,00,23,15.00
2018,04,25,00,24,15.00
2018,04,25,00,25,15.00
2018,04,25,00,26,15.00
2018,04,25,00,27,15.00
2018,04,25,00,28,15.00
2018,04,25,00,29,15.00
2018,04,25,00,30,15.00
2018,04,25,00,31,15.00
2018,04,25,00,32,15.00
2018,04,25,00,33,15.00
2018,04,25,00,34,15.00
2018,04,25,00,35,15.00
2018,04,25,00,36,15.10
2018,04,25,00,37,15.10
2018,04,25,00,38,15.20
2018,04,25,00,39,15.20
2018,04,25,00,40,15.20
2018,04,25,00,41,15.20
2018,04,25,00,42,15.20
2018,04,25,00,43,15.20
2018,04,25,00,44,15.20
2018,04,25,00,45,15.20
2018,04,25,00,46,15.20
2018,04,25,00,47,15.20
2018,04,25,00,48,15.20
2018,04,25,00,49,15.20
2018,04,25,00,50,15.10
2018,04,25,00,51,15.10
2018,04,25,00,52,15.10
2018,04,25,00,53,15.10
2018,04,25,00,54,15.10
2018,04,25,00,55,15.10
2018,04,25,00,56,15.10
2018,04,25,00,57,15.10
2018,04,25,00,58,15.10
2018,04,25,00,59,15.10
2018,04,25,01,00,15.10
2018,04,25,01,01,15.10
2018,04,25,01,02,15.00
2018,04,25,01,03,15.00
2018,04,25,01,04,15.00
2018,04,25,01,05,15.00
2018,04,25,01,06,15.00
2018,04,25,01,07,15.00
2018,04,25,01,08,15.00
2018,04,25,01,09,15.00
2018,04,25,01,10,15.00
2018,04,25,01,11,14.90
2018,04,25,01,12,14.80
2018,04,25,01,13,14.80
2018,04,25,01,14,14.80
2018,04,25,01,15,14.70
2018,04,25,01,16,14.70
2018,04,25,01,17,14.70
2018,04,25,01,18,14.60
2018,04,25,01,19,14.60
2018,04,25,01,20,14.60
2018,04,25,01,21,14.50
2018,04,25,01,22,14.50
2018,04,25,01,23,14.50
2018,04,25,01,24,14.40
2018,04,25,01,25,14.40
2018,04,25,01,26,14.40
2018,04,25,01,27,14.30
2018,04,25,01,28,14.30
2018,04,25,01,29,14.30
2018,04,25,01,30,14.30
2018,04,25,01,31,14.20
2018,04,25,01,32,14.20
2018,04,25,01,33,14.20
2018,04,25,01,34,14.10
2018,04,25,01,35,14.10
2018,04,25,01,36,14.10
2018,04,25,01,37,14.00
2018,04,25,01,38,14.00
2018,04,25,01,39,13.90
2018,04,25,01,40,13.90
2018,04,25,01,41,13.90
2018,04,25,01,42,13.90
2018,04,25,01,43,13.80
2018,04,25,01,44,13.80
2018,04,25,01,45,13.80
2018,04,25,01,46,13.80
2018,04,25,01,47,13.80
2018,04,25,01,48,13.80
2018,04,25,01,49,13.70
2018,04,25,01,50,13.70
2018,04,25,01,51,13.70
2018,04,25,01,52,13.70
2018,04,25,01,53,13.70
2018,04,25,01,54,13.70
2018,04,25,01,55,13.70
2018,04,25,01,56,13.70
2018,04,25,01,57,13.70
2018,04,25,01,58,13.70
2018,04,25,01,59,13.70
2018,04,25,02,00,13.70
2018,04,25,02,01,13.70
2018,04,25,02,02,13.70
2018,04,25,02,03,13.70
2018,04,25,02,04,13.70
2018,04,25,02,05,13.70
2018,04,25,02,06,13.70
2018,04,25,02,07,13.70
2018,04,25,02,08,13.70
2018,04,25,02,09,13.70
2018,04,25,02,10,13.70
2018,04,25,02,11,13.70
2018,04,25,02,12,13.70
2018,04,25,02,13,13.70
2018,04,25,02,14,13.70
2018,04,25,02,15,13.70
2018,04,25,02,16,13.70
2018,04,25,02,17,13.70
2018,04,25,02,18,13.70
2018,04,25,02,19,13.60
2018,04,25,02,20,13.60
2018,04,25,02,21,13.60
2018,04,25,02,22,13.60
2018,04,25,02,23,13.50
2018,04,25,02,24,13.50
2018,04,25,02,25,13.50
2018,04,25,02,26,13.40
2018,04,25,02,27,13.40
2018,04,25,02,28,13.40
2018,04,25,02,29,13.40
2018,04,25,02,30,13.40
2018,04,25,02,31,13.40
2018,04,25,02,32,13.40
2018,04,25,02,33,13.40
2018,04,25,02,34,13.40
2018,04,25,02,35,13.40
2018,04,25,02,36,13.40
2018,04,25,02,37,13.40
2018,04,25,02,38,13.40
2018,04,25,02,39,13.40
2018,04,25,02,40,13.40
2018,04,25,02,41,13.30
2018,04,25,02,42,13.30
2018,04,25,02,43,13.30
2018,04,25,02,44,13.30
2018,04,25,02,45,13.30
2018,04,25,02,46,13.20
2018,04,25,02,47,13.20
2018,04,25,02,48,13.20
2018,04,25,02,49,13.10
2018,04,25,02,50,13.10
2018,04,25,02,51,13.10
2018,04,25,02,52,13.10
2018,04,25,02,53,13.00
2018,04,25,02,54,13.00
2018,04,25,02,55,12.90
2018,04,25,02,56,12.90
2018,04,25,02,57,12.90
2018,04,25,02,58,12.90
2018,04,25,02,59,12.80
2018,04,25,03,00,12.80
2018,04,25,03,01,12.80
2018,04,25,03,02,12.70
2018,04,25,03,03,12.70
2018,04,25,03,04,12.70
2018,04,25,03,05,12.70
2018,04,25,03,06,12.70
2018,04,25,03,07,12.70
2018,04,25,03,08,12.60
2018,04,25,03,09,12.60
2018,04,25,03,10,12.60
2018,04,25,03,11,12.60
2018,04,25,03,12,12.50
2018,04,25,03,13,12.50
2018,04,25,03,14,12.40
2018,04,25,03,15,12.40
2018,04,25,03,16,12.40
2018,04,25,03,17,12.40
2018,04,25,03,18,12.30
2018,04,25,03,19,12.30
2018,04,25,03,20,12.30
2018,04,25,03,21,12.30
2018,04,25,03,22,12.30
2018,04,25,03,23,12.30
2018,04,25,03,24,12.30
2018,04,25,03,25,12.20
2018,04,25,03,26,12.20
2018,04,25,03,27,12.20
2018,04,25,03,28,12.20
2018,04,25,03,29,12.20
2018,04,25,03,30,12.10
2018,04,25,03,31,12.10
2018,04,25,03,32,12.10
2018,04,25,03,33,12.10
2018,04,25,03,34,12.10
2018,04,25,03,35,12.10
2018,04,25,03,36,12.10
2018,04,25,03,37,12.20
2018,04,25,03,38,12.20
2018,04,25,03,39,12.20
2018,04,25,03,40,12.20
2018,04,25,03,41,12.20
2018,04,25,03,42,12.20
2018,04,25,03,43,12.20
2018,04,25,03,44,12.20
2018,04,25,03,45,12.20
2018,04,25,03,46,12.20
2018,04,25,03,47,12.20
2018,04,25,03,48,12.10
2018,04,25,03,49,12.10
2018,04,25,03,50,12.10
2018,04,25,03,51,12.00
2018,04,25,03,52,12.00
2018,04,25,03,53,12.00
2018,04,25,03,54,11.90
2018,04,25,03,55,11.90
2018,04,25,03,56,11.90
2018,04,25,03,57,11.80
2018,04,25,03,58,11.80
2018,04,25,03,59,11.80
2018,04,25,04,00,11.70
2018,04,25,04,01,11.70
2018,04,25,04,02,11.60
2018,04,25,04,03,11.60
2018,04,25,04,04,11.50
2018,04,25,04,05,11.40
2018,04,25,04,06,11.40
2018,04,25,04,07,11.40
2018,04,25,04,08,11.30
2018,04,25,04,09,11.30
2018,04,25,04,10,11.30
2018,04,25,04,11,11.30
2018,04,25,04,12,11.30
2018,04,25,04,13,11.30
2018,04,25,04,14,11.30
2018,04,25,04,15,11.30
2018,04,25,04,16,11.30
2018,04,25,04,17,11.30
2018,04,25,04,18,11.30
2018,04,25,04,19,11.30
2018,04,25,04,20,11.30
2018,04,25,04,21,11.30
2018,04,25,04,22,11.30
2018,04,25,04,23,11.40
2018,04,25,04,24,11.40
2018,04,25,04,25,11.40
2018,04,25,04,26,11.40
2018,04,25,04,27,11.40
2018,04,25,04,28,11.50
2018,04,25,04,29,11.50
2018,04,25,04,30,11.50
2018,04,25,04,31,11.50
2018,04,25,04,32,11.60
2018,04,25,04,33,11.60
2018,04,25,04,34,11.60
2018,04,25,04,35,11.60
2018,04,25,04,36,11.60
2018,04,25,04,37,11.60
2018,04,25,04,38,11.60
2018,04,25,04,39,11.60
2018,04,25,04,40,11.60
2018,04,25,04,41,11.60
2018,04,25,04,42,11.60
2018,04,25,04,43,11.60
2018,04,25,04,44,11.60
2018,04,25,04,45,11.70
2018,04,25,04,46,11.70
2018,04,25,04,47,11.70
2018,04,25,04,48,11.70
2018,04,25,04,49,11.80
2018,04,25,04,50,11.80
2018,04,25,04,51,11.80
2018,04,25,04,52,11.80
2018,04,25,04,53,11.80
2018,04,25,04,54,11.80
2018,04,25,04,55,11.80
2018,04,25,04,56,11.80
2018,04,25,04,57,11.80
2018,04,25,04,58,11.80
2018,04,25,04,59,11.80
2018,04,25,05,00,11.70
2018,04,25,05,01,11.70
2018,04,25,05,02,11.70
2018,04,25,05,03,11.70
2018,04,25,05,04,11.70
2018,04,25,05,05,11.70
2018,04,25,05,06,11.70
2018,04,25,05,07,11.60
2018,04,25,05,08,11.60
2018,04,25,05,09,11.60
2018,04,25,05,10,11.60
2018,04,25,05,11,11.50
2018,04,25,05,12,11.50
2018,04,25,05,13,11.50
2018,04,25,05,14,11.50
2018,04,25,05,15,11.40
2018,04,25,05,16,11.40
2018,04,25,05,17,11.40
2018,04,25,05,18,11.40
2018,04,25,05,19,11.30
2018,04,25,05,20,11.30
2018,04,25,05,21,11.30
2018,04,25,05,22,11.30
2018,04,25,05,23,11.30
2018,04,25,05,24,11.30
2018,04,25,05,25,11.20
2018,04,25,05,26,11.20
2018,04,25,05,27,11.20
2018,04,25,05,28,11.20
2018,04,25,05,29,11.10
2018,04,25,05,30,11.10
2018,04,25,05,31,11.10
2018,04,25,05,32,11.00
2018,04,25,05,33,10.90
2018,04,25,05,34,10.90
2018,04,25,05,35,10.90
2018,04,25,05,36,10.80
2018,04,25,05,37,10.80
2018,04,25,05,38,10.80
2018,04,25,05,39,10.70
2018,04,25,05,40,10.70
2018,04,25,05,41,10.70
2018,04,25,05,42,10.60
2018,04,25,05,43,10.60
2018,04,25,05,44,10.50
2018,04,25,05,45,10.50
2018,04,25,05,46,10.40
2018,04,25,05,47,10.40
2018,04,25,05,48,10.40
2018,04,25,05,49,10.40
2018,04,25,05,50,10.40
2018,04,25,05,51,10.40
2018,04,25,05,52,10.40
2018,04,25,05,53,10.30
2018,04,25,05,54,10.30
2018,04,25,05,55,10.30
2018,04,25,05,56,10.30
2018,04,25,05,57,10.30
2018,04,25,05,58,10.30
2018,04,25,05,59,10.30
2018,04,25,06,00,10.30
2018,04,25,06,01,10.30
2018,04,25,06,02,10.30
2018,04,25,06,03,10.30
2018,04,25,06,04,10.30
2018,04,25,06,05,10.30
2018,04,25,06,06,10.30
2018,04,25,06,07,10.30
2018,04,25,06,08,10.30
2018,04,25,06,09,10.30
2018,04,25,06,10,10.40
2018,04,25,06,11,10.50
2018,04,25,06,12,10.50
2018,04,25,06,13,10.60
2018,04,25,06,14,10.60
2018,04,25,06,15,10.60
2018,04,25,06,16,10.50
2018,04,25,06,17,10.50
2018,04,25,06,18,10.50
2018,04,25,06,19,10.50
2018,04,25,06,20,10.50
2018,04,25,06,21,10.40
2018,04,25,06,22,10.40
2018,04,25,06,23,10.40
2018,04,25,06,24,10.40
2018,04,25,06,25,10.40
2018,04,25,06,26,10.30
2018,04,25,06,27,10.30
2018,04,25,06,28,10.30
2018,04,25,06,29,10.30
2018,04,25,06,30,10.20
2018,04,25,06,31,10.20
2018,04,25,06,32,10.20
2018,04,25,06,33,10.10
2018,04,25,06,34,10.10
2018,04,25,06,35,10.10
2018,04,25,06,36,10.10
2018,04,25,06,37,10.10
2018,04,25,06,38,10.00
2018,04,25,06,39,10.00
2018,04,25,06,40,10.00
2018,04,25,06,41,10.00
2018,04,25,06,42,10.10
2018,04,25,06,43,10.10
2018,04,25,06,44,10.10
2018,04,25,06,45,10.10
2018,04,25,06,46,10.20
2018,04,25,06,47,10.20
2018,04,25,06,48,10.20
2018,04,25,06,49,10.20
2018,04,25,06,50,10.20
2018,04,25,06,51,10.20
2018,04,25,06,52,10.30
2018,04,25,06,53,10.30
2018,04,25,06,54,10.30
2018,04,25,06,55,10.30
2018,04,25,06,56,10.30
2018,04,25,06,57,10.30
2018,04,25,06,58,10.30
2018,04,25,06,59,10.30
2018,04,25,07,00,10.30
2018,04,25,07,01,10.40
2018,04,25,07,02,10.40
2018,04,25,07,03,10.40
2018,04,25,07,04,10.40
2018,04,25,07,05,10.50
2018,04,25,07,06,10.50
2018,04,25,07,07,10.50
2018,04,25,07,08,10.60
2018,04,25,07,09,10.60
2018,04,25,07,10,10.60
2018,04,25,07,11,10.60
2018,04,25,07,12,10.60
2018,04,25,07,13,10.70
2018,04,25,07,14,10.70
2018,04,25,07,15,10.80
2018,04,25,07,16,10.80
2018,04,25,07,17,10.90
2018,04,25,07,18,10.90
2018,04,25,07,19,10.90
2018,04,25,07,20,11.00
2018,04,25,07,21,11.00
2018,04,25,07,22,11.10
2018,04,25,07,23,11.10
2018,04,25,07,24,11.20
2018,04,25,07,25,11.20
2018,04,25,07,26,11.20
2018,04,25,07,27,11.30
2018,04,25,07,28,11.40
2018,04,25,07,29,11.40
2018,04,25,07,30,11.50
2018,04,25,07,31,11.60
2018,04,25,07,32,11.70
2018,04,25,07,33,11.80
2018,04,25,07,34,11.90
2018,04,25,07,35,11.90
2018,04,25,07,36,12.00
2018,04,25,07,37,12.10
2018,04,25,07,38,12.20
2018,04,25,07,39,12.20
2018,04,25,07,40,12.20
2018,04,25,07,41,12.30
2018,04,25,07,42,12.30
2018,04,25,07,43,12.40
2018,04,25,07,44,12.40
2018,04,25,07,45,12.40
2018,04,25,07,46,12.40
2018,04,25,07,47,12.40
2018,04,25,07,48,12.40
2018,04,25,07,49,12.40
2018,04,25,07,50,12.40
2018,04,25,07,51,12.40
2018,04,25,07,52,12.40
2018,04,25,07,53,12.40
2018,04,25,07,54,12.50
2018,04,25,07,55,12.50
2018,04,25,07,56,12.50
2018,04,25,07,57,12.60
2018,04,25,07,58,12.60
2018,04,25,07,59,12.60
2018,04,25,08,00,12.60
2018,04,25,08,01,12.70
2018,04,25,08,02,12.70
2018,04,25,08,03,12.80
2018,04,25,08,04,12.80
2018,04,25,08,05,12.80
2018,04,25,08,06,12.80
2018,04,25,08,07,12.90
2018,04,25,08,08,12.90
2018,04,25,08,09,13.00
2018,04,25,08,10,13.10
2018,04,25,08,11,13.10
2018,04,25,08,12,13.20
2018,04,25,08,13,13.30
2018,04,25,08,14,13.30
2018,04,25,08,15,13.40
2018,04,25,08,16,13.40
2018,04,25,08,17,13.40
2018,04,25,08,18,13.50
2018,04,25,08,19,13.50
2018,04,25,08,20,13.60
2018,04,25,08,21,13.70
2018,04,25,08,22,13.70
2018,04,25,08,23,13.70
2018,04,25,08,24,13.80
2018,04,25,08,25,13.80
2018,04,25,08,26,13.90
2018,04,25,08,27,13.90
2018,04,25,08,28,14.00
2018,04,25,08,29,14.00
2018,04,25,08,30,14.10
2018,04,25,08,31,14.10
2018,04,25,08,32,14.20
2018,04,25,08,33,14.20
2018,04,25,08,34,14.20
2018,04,25,08,35,14.30
2018,04,25,08,36,14.30
2018,04,25,08,37,14.30
2018,04,25,08,38,14.30
2018,04,25,08,39,14.40
2018,04,25,08,40,14.50
2018,04,25,08,41,14.70
2018,04,25,08,42,14.80
2018,04,25,08,43,14.80
2018,04,25,08,44,15.00
2018,04,25,08,45,15.00
2018,04,25,08,46,15.00
2018,04,25,08,47,15.00
2018,04,25,08,48,15.00
2018,04,25,08,49,15.00
2018,04,25,08,50,15.10
2018,04,25,08,51,15.10
2018,04,25,08,52,15.10
2018,04,25,08,53,15.10
2018,04,25,08,54,15.10
2018,04,25,08,55,15.20
2018,04,25,08,56,15.20
2018,04,25,08,57,15.30
2018,04,25,08,58,15.30
2018,04,25,08,59,15.40
2018,04,25,09,00,15.50
2018,04,25,09,01,15.50
2018,04,25,09,02,15.60
2018,04,25,09,03,15.70
2018,04,25,09,04,15.70
2018,04,25,09,05,15.80
2018,04,25,09,06,15.80
2018,04,25,09,07,15.80
2018,04,25,09,08,15.80
2018,04,25,09,09,15.80
2018,04,25,09,10,15.80
2018,04,25,09,11,15.80
2018,04,25,09,12,15.70
2018,04,25,09,13,15.70
2018,04,25,09,14,15.60
2018,04,25,09,15,15.60
2018,04,25,09,16,15.50
2018,04,25,09,17,15.50
2018,04,25,09,18,15.50
2018,04,25,09,19,15.50
2018,04,25,09,20,15.50
2018,04,25,09,21,15.50
2018,04,25,09,22,15.50
2018,04,25,09,23,15.60
2018,04,25,09,24,15.60
2018,04,25,09,25,15.60
2018,04,25,09,26,15.70
2018,04,25,09,27,15.70
2018,04,25,09,28,15.70
2018,04,25,09,29,15.80
2018,04,25,09,30,15.80
2018,04,25,09,31,15.90
2018,04,25,09,32,15.90
2018,04,25,09,33,16.00
2018,04,25,09,34,16.00
2018,04,25,09,35,16.00
2018,04,25,09,36,15.90
2018,04,25,09,37,15.90
2018,04,25,09,38,15.90
2018,04,25,09,39,15.80
2018,04,25,09,40,15.80
2018,04,25,09,41,15.80
2018,04,25,09,42,15.80
2018,04,25,09,43,15.80
2018,04,25,09,44,15.90
2018,04,25,09,45,15.80
2018,04,25,09,46,15.80
2018,04,25,09,47,15.80
2018,04,25,09,48,15.80
2018,04,25,09,49,15.80
2018,04,25,09,50,15.80
2018,04,25,09,51,15.70
2018,04,25,09,52,15.70
2018,04,25,09,53,15.70
2018,04,25,09,54,15.70
2018,04,25,09,55,15.70
2018,04,25,09,56,15.70
2018,04,25,09,57,15.70
2018,04,25,09,58,15.60
2018,04,25,09,59,15.50
2018,04,25,10,00,15.50
2018,04,25,10,01,15.40
2018,04,25,10,02,15.40
2018,04,25,10,03,15.40
2018,04,25,10,04,15.30
2018,04,25,10,05,15.30
2018,04,25,10,06,15.20
2018,04,25,10,07,15.20
2018,04,25,10,08,15.20
2018,04,25,10,09,15.20
2018,04,25,10,10,15.10
2018,04,25,10,11,15.20
2018,04,25,10,12,15.20
2018,04,25,10,13,15.20
2018,04,25,10,14,15.20
2018,04,25,10,15,15.20
2018,04,25,10,16,15.20
2018,04,25,10,17,15.20
2018,04,25,10,18,15.20
2018,04,25,10,19,15.20
2018,04,25,10,20,15.20
2018,04,25,10,21,15.20
2018,04,25,10,22,15.20
2018,04,25,10,23,15.20
2018,04,25,10,24,15.20
2018,04,25,10,25,15.20
2018,04,25,10,26,15.10
2018,04,25,10,27,15.00
2018,04,25,10,28,15.00
2018,04,25,10,29,15.00
2018,04,25,10,30,15.00
2018,04,25,10,31,15.00
2018,04,25,10,32,15.00
2018,04,25,10,33,15.00
2018,04,25,10,34,15.00
2018,04,25,10,35,15.00
2018,04,25,10,36,15.00
2018,04,25,10,37,15.00
2018,04,25,10,38,15.00
2018,04,25,10,39,15.00
2018,04,25,10,40,15.10
2018,04,25,10,41,15.10
2018,04,25,10,42,15.10
2018,04,25,10,43,15.10
2018,04,25,10,44,15.20
2018,04,25,10,45,15.20
2018,04,25,10,46,15.30
2018,04,25,10,47,15.30
2018,04,25,10,48,15.40
2018,04,25,10,49,15.40
2018,04,25,10,50,15.50
2018,04,25,10,51,15.50
2018,04,25,10,52,15.60
2018,04,25,10,53,15.50
2018,04,25,10,54,15.50
2018,04,25,10,55,15.50
2018,04,25,10,56,15.60
2018,04,25,10,57,15.60
2018,04,25,10,58,15.70
2018,04,25,10,59,15.70
2018,04,25,11,00,15.70
2018,04,25,11,01,15.70
2018,04,25,11,02,15.70
2018,04,25,11,03,15.70
2018,04,25,11,04,15.70
2018,04,25,11,05,15.70
2018,04,25,11,06,15.70
2018,04,25,11,07,15.70
2018,04,25,11,08,15.70
2018,04,25,11,09,15.80
2018,04,25,11,10,15.80
2018,04,25,11,11,15.90
2018,04,25,11,12,15.90
2018,04,25,11,13,15.90
2018,04,25,11,14,15.90
2018,04,25,11,15,15.90
2018,04,25,11,16,16.00
2018,04,25,11,17,16.00
2018,04,25,11,18,16.10
2018,04,25,11,19,16.10
2018,04,25,11,20,16.10
2018,04,25,11,21,16.10
2018,04,25,11,22,16.10
2018,04,25,11,23,16.10
2018,04,25,11,24,16.10
2018,04,25,11,25,16.00
2018,04,25,11,26,16.00
2018,04,25,11,27,16.00
2018,04,25,11,28,16.00
2018,04,25,11,29,16.10
2018,04,25,11,30,16.10
2018,04,25,11,31,16.20
2018,04,25,11,32,16.20
2018,04,25,11,33,16.20
2018,04,25,11,34,16.30
2018,04,25,11,35,16.30
2018,04,25,11,36,16.30
2018,04,25,11,37,16.20
2018,04,25,11,38,16.20
2018,04,25,11,39,16.10
2018,04,25,11,40,16.10
2018,04,25,11,41,16.10
2018,04,25,11,42,16.10
2018,04,25,11,43,16.10
2018,04,25,11,44,16.20
2018,04,25,11,45,16.20
2018,04,25,11,46,16.20
2018,04,25,11,47,16.20
2018,04,25,11,48,16.30
2018,04,25,11,49,16.30
2018,04,25,11,50,16.30
2018,04,25,11,51,16.30
2018,04,25,11,52,16.30
2018,04,25,11,53,16.30
2018,04,25,11,54,16.30
2018,04,25,11,55,16.30
2018,04,25,11,56,16.30
2018,04,25,11,57,16.40
2018,04,25,11,58,16.40
2018,04,25,11,59,16.40
2018,04,25,12,00,16.40
2018,04,25,12,01,16.40
2018,04,25,12,02,16.50
2018,04,25,12,03,16.50
2018,04,25,12,04,16.60
2018,04,25,12,05,16.60
2018,04,25,12,06,16.60
2018,04,25,12,07,16.60
2018,04,25,12,08,16.60
2018,04,25,12,09,16.60
2018,04,25,12,10,16.70
2018,04,25,12,11,16.80
2018,04,25,12,12,16.80
2018,04,25,12,13,16.90
2018,04,25,12,14,16.90
2018,04,25,12,15,16.90
2018,04,25,12,16,16.90
2018,04,25,12,17,16.90
2018,04,25,12,18,16.90
2018,04,25,12,19,17.00
2018,04,25,12,20,17.00
2018,04,25,12,21,17.10
2018,04,25,12,22,17.10
2018,04,25,12,23,17.20
2018,04,25,12,24,17.20
2018,04,25,12,25,17.30
2018,04,25,12,26,17.30
2018,04,25,12,27,17.30
2018,04,25,12,28,17.40
2018,04,25,12,29,17.40
2018,04,25,12,30,17.50
2018,04,25,12,31,17.50
2018,04,25,12,32,17.60
2018,04,25,12,33,17.60
2018,04,25,12,34,17.50
2018,04,25,12,35,17.40
2018,04,25,12,36,17.40
2018,04,25,12,37,17.40
2018,04,25,12,38,17.30
2018,04,25,12,39,17.30
2018,04,25,12,40,17.30
2018,04,25,12,41,17.30
2018,04,25,12,42,17.20
2018,04,25,12,43,17.20
2018,04,25,12,44,17.10
2018,04,25,12,45,17.10
2018,04,25,12,46,17.10
2018,04,25,12,47,17.10
2018,04,25,12,48,17.10
2018,04,25,12,49,17.10
2018,04,25,12,50,17.10
2018,04,25,12,51,17.10
2018,04,25,12,52,17.10
2018,04,25,12,53,17.10
2018,04,25,12,54,17.10
2018,04,25,12,55,17.10
2018,04,25,12,56,17.20
2018,04,25,12,57,17.20
2018,04,25,12,58,17.20
2018,04,25,12,59,17.30
2018,04,25,13,00,17.30
2018,04,25,13,01,17.30
2018,04,25,13,02,17.30
2018,04,25,13,03,17.30
2018,04,25,13,04,17.30
2018,04,25,13,05,17.40
2018,04,25,13,06,17.40
2018,04,25,13,07,17.40
2018,04,25,13,08,17.60
2018,04,25,13,09,17.70
2018,04,25,13,10,17.70
2018,04,25,13,11,17.70
2018,04,25,13,12,17.80
2018,04,25,13,13,17.80
2018,04,25,13,14,17.80
2018,04,25,13,15,17.80
2018,04,25,13,16,17.90
2018,04,25,13,17,18.00
2018,04,25,13,18,18.00
2018,04,25,13,19,18.00
2018,04,25,13,20,18.10
2018,04,25,13,21,18.10
2018,04,25,13,22,18.20
2018,04,25,13,23,18.20
2018,04,25,13,24,18.10
2018,04,25,13,25,18.10
2018,04,25,13,26,18.10
2018,04,25,13,27,18.10
2018,04,25,13,28,18.10
2018,04,25,13,29,18.10
2018,04,25,13,30,18.10
2018,04,25,13,31,18.10
2018,04,25,13,32,18.20
2018,04,25,13,33,18.20
2018,04,25,13,34,18.20
2018,04,25,13,35,18.20
2018,04,25,13,36,18.30
2018,04,25,13,37,18.30
2018,04,25,13,38,18.30
2018,04,25,13,39,18.40
2018,04,25,13,40,18.50
2018,04,25,13,41,18.50
2018,04,25,13,42,18.60
2018,04,25,13,43,18.60
2018,04,25,13,44,18.60
2018,04,25,13,45,18.60
2018,04,25,13,46,18.60
2018,04,25,13,47,18.60
2018,04,25,13,48,18.60
2018,04,25,13,49,18.60
2018,04,25,13,50,18.60
2018,04,25,13,51,18.60
2018,04,25,13,52,18.60
2018,04,25,13,53,18.60
2018,04,25,13,54,18.60
2018,04,25,13,55,18.60
2018,04,25,13,56,18.60
2018,04,25,13,57,18.60
2018,04,25,13,58,18.70
2018,04,25,13,59,18.70
2018,04,25,14,00,18.80
2018,04,25,14,01,18.90
2018,04,25,14,02,18.90
2018,04,25,14,03,19.00
2018,04,25,14,04,19.00
2018,04,25,14,05,19.00
2018,04,25,14,06,19.00
2018,04,25,14,07,19.00
2018,04,25,14,08,18.90
2018,04,25,14,09,18.90
2018,04,25,14,10,18.90
2018,04,25,14,11,18.90
2018,04,25,14,12,18.90
2018,04,25,14,13,18.90
2018,04,25,14,14,19.00
2018,04,25,14,15,19.00
2018,04,25,14,16,19.00
2018,04,25,14,17,18.90
2018,04,25,14,18,18.90
2018,04,25,14,19,18.90
2018,04,25,14,20,18.80
2018,04,25,14,21,18.80
2018,04,25,14,22,18.80
2018,04,25,14,23,18.80
2018,04,25,14,24,18.80
2018,04,25,14,25,18.80
2018,04,25,14,26,18.80
2018,04,25,14,27,18.80
2018,04,25,14,28,18.80
2018,04,25,14,29,18.80
2018,04,25,14,30,18.80
2018,04,25,14,31,18.80
2018,04,25,14,32,18.80
2018,04,25,14,33,18.90
2018,04,25,14,34,18.90
2018,04,25,14,35,18.90
2018,04,25,14,36,18.90
2018,04,25,14,37,18.90
2018,04,25,14,38,18.90
2018,04,25,14,39,18.90
2018,04,25,14,40,18.90
2018,04,25,14,41,18.90
2018,04,25,14,42,19.00
2018,04,25,14,43,19.10
2018,04,25,14,44,19.10
2018,04,25,14,45,19.20
2018,04,25,14,46,19.20
2018,04,25,14,47,19.20
2018,04,25,14,48,19.30
2018,04,25,14,49,19.30
2018,04,25,14,50,19.30
2018,04,25,14,51,19.40
2018,04,25,14,52,19.50
2018,04,25,14,53,19.50
2018,04,25,14,54,19.50
2018,04,25,14,55,19.60
2018,04,25,14,56,19.60
2018,04,25,14,57,19.60
2018,04,25,14,58,19.60
2018,04,25,14,59,19.60
2018,04,25,15,00,19.60
2018,04,25,15,01,19.50
2018,04,25,15,02,19.50
2018,04,25,15,03,19.50
2018,04,25,15,04,19.50
2018,04,25,15,05,19.50
2018,04,25,15,06,19.50
2018,04,25,15,07,19.50
2018,04,25,15,08,19.40
2018,04,25,15,09,19.40
2018,04,25,15,10,19.40
2018,04,25,15,11,19.40
2018,04,25,15,12,19.50
2018,04,25,15,13,19.50
2018,04,25,15,14,19.50
2018,04,25,15,15,19.50
2018,04,25,15,16,19.50
2018,04,25,15,17,19.60
2018,04,25,15,18,19.60
2018,04,25,15,19,19.60
2018,04,25,15,20,19.70
2018,04,25,15,21,19.80
2018,04,25,15,22,19.80
2018,04,25,15,23,19.80
2018,04,25,15,24,19.90
2018,04,25,15,25,19.90
2018,04,25,15,26,19.90
2018,04,25,15,27,19.90
2018,04,25,15,28,20.00
2018,04,25,15,29,20.00
2018,04,25,15,30,20.10
2018,04,25,15,31,20.10
2018,04,25,15,32,20.10
2018,04,25,15,33,20.20
2018,04,25,15,34,20.20
2018,04,25,15,35,20.30
2018,04,25,15,36,20.30
2018,04,25,15,37,20.30
2018,04,25,15,38,20.30
2018,04,25,15,39,20.30
2018,04,25,15,40,20.40
2018,04,25,15,41,20.40
2018,04,25,15,42,20.40
2018,04,25,15,43,20.50
2018,04,25,15,44,20.50
2018,04,25,15,45,20.50
2018,04,25,15,46,20.60
2018,04,25,15,47,20.50
2018,04,25,15,48,20.50
2018,04,25,15,49,20.40
2018,04,25,15,50,20.40
2018,04,25,15,51,20.40
2018,04,25,15,52,20.40
2018,04,25,15,53,20.40
2018,04,25,15,54,20.40
2018,04,25,15,55,20.50
2018,04,25,15,56,20.50
2018,04,25,15,57,20.50
2018,04,25,15,58,20.60
2018,04,25,15,59,20.60
2018,04,25,16,00,20.60
2018,04,25,16,01,20.70
2018,04,25,16,02,20.80
2018,04,25,16,03,20.80
2018,04,25,16,04,20.80
2018,04,25,16,05,20.80
2018,04,25,16,06,20.80
2018,04,25,16,07,20.80
2018,04,25,16,08,20.80
2018,04,25,16,09,20.90
2018,04,25,16,10,20.90
2018,04,25,16,11,20.90
2018,04,25,16,12,21.00
2018,04,25,16,13,21.00
2018,04,25,16,14,21.10
2018,04,25,16,15,21.10
2018,04,25,16,16,21.20
2018,04,25,16,17,21.20
2018,04,25,16,18,21.20
2018,04,25,16,19,21.20
2018,04,25,16,20,21.20
2018,04,25,16,21,21.20
2018,04,25,16,22,21.20
2018,04,25,16,23,21.20
2018,04,25,16,24,21.20
2018,04,25,16,25,21.20
2018,04,25,16,26,21.20
2018,04,25,16,27,21.10
2018,04,25,16,28,21.10
2018,04,25,16,29,21.10
2018,04,25,16,30,21.20
2018,04,25,16,31,21.20
2018,04,25,16,32,21.20
2018,04,25,16,33,21.10
2018,04,25,16,34,21.10
2018,04,25,16,35,21.10
2018,04,25,16,36,21.10
2018,04,25,16,37,21.20
2018,04,25,16,38,21.20
2018,04,25,16,39,21.20
2018,04,25,16,40,21.30
2018,04,25,16,41,21.30
2018,04,25,16,42,21.30
2018,04,25,16,43,21.30
2018,04,25,16,44,21.30
2018,04,25,16,45,21.30
2018,04,25,16,46,21.40
2018,04,25,16,47,21.40
2018,04,25,16,48,21.40
2018,04,25,16,49,21.50
2018,04,25,16,50,21.50
2018,04,25,16,51,21.50
2018,04,25,16,52,21.60
2018,04,25,16,53,21.60
2018,04,25,16,54,21.60
2018,04,25,16,55,21.60
2018,04,25,16,56,21.60
2018,04,25,16,57,21.70
2018,04,25,16,58,21.70
2018,04,25,16,59,21.70
2018,04,25,17,00,21.80
2018,04,25,17,01,21.80
2018,04,25,17,02,21.80
2018,04,25,17,03,21.90
2018,04,25,17,04,21.90
2018,04,25,17,05,21.90
2018,04,25,17,06,21.90
2018,04,25,17,07,21.90
2018,04,25,17,08,22.00
2018,04,25,17,09,22.00
2018,04,25,17,10,22.00
2018,04,25,17,11,22.10
2018,04,25,17,12,22.10
2018,04,25,17,13,22.10
2018,04,25,17,14,22.10
2018,04,25,17,15,22.10
2018,04,25,17,16,22.10
2018,04,25,17,17,22.10
2018,04,25,17,18,22.10
2018,04,25,17,19,22.10